Weather History for Souda, Greece

Change the Weather History Date:

Wednesday, January 16, 2013

  Actual Average Record
Temperature  
Mean Temperature 56 °F -  
Max Temperature 63 °F 59 °F 63 °F (2013)
Min Temperature 49 °F 46 °F 37 °F (2003)
Degree Days  
Heating Degree Days 9    
Growing Degree Days 6 (Base 50)    
Moisture  
Dew Point 46 °F    
Average Humidity 73    
Maximum Humidity 88    
Minimum Humidity 44    
Precipitation  
Precipitation 0.04 in 0.17 in - ()
Sea Level Pressure  
Sea Level Pressure 29.92 in    
Wind  
Wind Speed 6 mph ()    
Max Wind Speed 18 mph    
Max Gust Speed 28 mph    
Visibility 6.1 miles    
Events Rain , Thunderstorm    
Averages and records for this station are not official NWS values.
T = Trace of Precipitation, MM = Missing Value Source: Averaged Metar Reports

Daily Weather History Graph

Daily Weather History Graph

Search for Another Location

Airport:

Trip Planner

Search our weather history database for the weather conditions in past years. The results will help you decide how hot, cold, wet, or windy it might be!

Date:

Astronomy

Jan. 16, 2013 Rise Set
Actual Time 7:31 AM EET 5:34 PM EET
Civil Twilight 7:04 AM EET 6:02 PM EET
Nautical Twilight 6:33 AM EET 6:33 PM EET
Astronomical Twilight 6:02 AM EET 7:04 PM EET
Moon 10:11 AM EET (1/16) 10:53 PM EET (1/16)
Length of Visible Light 10h 58m
Length of Day
10h 02m
Waxing Crescent, 25% of the Moon is Illuminated
Jan 16
Waxing Crescent
Jan 19
First Quarter
Jan 27
Full
Feb 3
Last Quarter
Feb 10
New

Hourly Weather History & Observations

Time (EET) Temp. Dew Point Humidity Pressure Visibility Wind Dir Wind Speed Gust Speed Precip Events Conditions
12:20 AM 57.2 °F 44.6 °F 63% 30.06 in 6.2 mi ESE 6.9 mph - N/A   Partly Cloudy
12:50 AM 57.2 °F 44.6 °F 63% 30.04 in 6.2 mi West 4.6 mph - N/A   Partly Cloudy
1:20 AM 57.2 °F 44.6 °F 63% 30.04 in 6.2 mi West 4.6 mph - N/A   Partly Cloudy
1:50 AM 51.8 °F 46.4 °F 82% 30.04 in 6.2 mi Calm Calm - N/A   Partly Cloudy
2:00 AM 51 °F 46 °F 77% 30.06 in 6 mi Calm Calm - -   Scattered Clouds
2:20 AM 51.8 °F 46.4 °F 82% 30.04 in 6.2 mi Calm Calm - N/A   Partly Cloudy
2:50 AM 50.0 °F 46.4 °F 87% 30.04 in 6.2 mi Calm Calm - N/A   Partly Cloudy
3:20 AM 50.0 °F 46.4 °F 87% 30.04 in 6.2 mi Calm Calm - N/A   Partly Cloudy
3:50 AM 50.0 °F 46.4 °F 87% 30.04 in 6.2 mi Calm Calm - N/A   Partly Cloudy
4:20 AM 50.0 °F 46.4 °F 87% 30.04 in 6.2 mi Calm Calm - N/A   Partly Cloudy
4:50 AM 50.0 °F 46.4 °F 87% 29.98 in 6.2 mi Calm Calm - N/A   Partly Cloudy
5:20 AM 50.0 °F 46.4 °F 87% 29.98 in 6.2 mi Calm Calm - N/A   Partly Cloudy
5:50 AM 50.0 °F 46.4 °F 87% 29.98 in 6.2 mi Variable 3.5 mph - N/A   Partly Cloudy
6:20 AM 50.0 °F 46.4 °F 87% 29.98 in 6.2 mi Variable 3.5 mph - N/A   Partly Cloudy
6:50 AM 50.0 °F 46.4 °F 87% 29.98 in 6.2 mi WNW 4.6 mph - N/A   Partly Cloudy
7:20 AM 50.0 °F 46.4 °F 87% 29.98 in 6.2 mi Calm Calm - N/A   Partly Cloudy
7:50 AM 50.0 °F 44.6 °F 82% 29.95 in 6.2 mi SE 6.9 mph - N/A   Scattered Clouds
8:00 AM 50 °F 44 °F 74% 29.97 in 6 mi SE 6.9 mph - -   Partly Cloudy
8:20 AM 50.0 °F 44.6 °F 82% 29.95 in 6.2 mi SE 6.9 mph - N/A   Scattered Clouds
8:50 AM 55.4 °F 48.2 °F 77% 29.95 in 6.2 mi West 6.9 mph - N/A   Scattered Clouds
9:20 AM 57.2 °F 48.2 °F 72% 29.95 in 6.2 mi West 4.6 mph - N/A   Scattered Clouds
9:50 AM 59.0 °F 48.2 °F 67% 29.95 in 6.2 mi NW 6.9 mph - N/A   Scattered Clouds
10:20 AM 59.0 °F 48.2 °F 67% 29.95 in 6.2 mi NW 6.9 mph - N/A   Scattered Clouds
10:50 AM 59.0 °F 48.2 °F 67% 29.92 in 6.2 mi ESE 9.2 mph - N/A   Scattered Clouds
11:20 AM 59.0 °F 48.2 °F 67% 29.92 in 6.2 mi SE 6.9 mph - N/A   Scattered Clouds
11:50 AM 60.8 °F 50.0 °F 68% 29.92 in 6.2 mi West 6.9 mph - N/A   Scattered Clouds
12:20 PM 60.8 °F 50.0 °F 68% 29.92 in 6.2 mi SSE 6.9 mph - N/A   Scattered Clouds
12:50 PM 64.4 °F 46.4 °F 52% 29.89 in 6.2 mi South 13.8 mph - N/A   Scattered Clouds
1:20 PM 64.4 °F 46.4 °F 52% 29.89 in 6.2 mi SSE 16.1 mph - N/A   Scattered Clouds
1:50 PM 60.8 °F 44.6 °F 55% 29.86 in 6.2 mi SSE 16.1 mph - N/A   Scattered Clouds
2:00 PM 61 °F 45 °F 44% 29.87 in 6 mi SSE 16.1 mph - -   Partly Cloudy
2:20 PM 60.8 °F 44.6 °F 55% 29.86 in 6.2 mi SSE 16.1 mph - N/A   Scattered Clouds
2:50 PM 60.8 °F 46.4 °F 59% 29.83 in 6.2 mi South 11.5 mph - N/A Rain Light Rain
3:20 PM 60.8 °F 46.4 °F 59% 29.83 in 6.2 mi South 11.5 mph - N/A   Scattered Clouds
3:50 PM 60.8 °F 46.4 °F 59% 29.83 in 6.2 mi South 6.9 mph - N/A Rain Light Rain
4:20 PM 60.8 °F 46.4 °F 59% 29.83 in 6.2 mi South 9.2 mph - N/A Rain Light Rain
4:50 PM 57.2 °F 50.0 °F 77% 29.83 in 6.2 mi West 11.5 mph - N/A Rain , Thunderstorm Light Thunderstorms and Rain
5:20 PM 57.2 °F 50.0 °F 77% 29.83 in 6.2 mi WNW 6.9 mph - N/A   Mostly Cloudy
5:50 PM 55.4 °F 51.8 °F 88% 29.83 in 6.2 mi NW 6.9 mph - N/A   Scattered Clouds
6:20 PM 55.4 °F 51.8 °F 88% 29.83 in 6.2 mi NW 9.2 mph - N/A   Scattered Clouds
6:50 PM 53.6 °F 42.8 °F 67% 29.83 in 6.2 mi WSW 9.2 mph - N/A   Scattered Clouds
7:20 PM 53.6 °F 42.8 °F 67% 29.83 in 6.2 mi WSW 6.9 mph - N/A   Scattered Clouds
7:50 PM 51.8 °F 42.8 °F 71% 29.83 in 6.2 mi WSW 6.9 mph - N/A   Scattered Clouds
8:00 PM 51 °F 43 °F 65% 29.86 in 6 mi WSW 6.9 mph - -   Partly Cloudy
8:20 PM 51.8 °F 42.8 °F 71% 29.83 in 6.2 mi WSW 5.8 mph - N/A   Scattered Clouds
8:50 PM 51.8 °F 41.0 °F 67% 29.83 in 6.2 mi West 6.9 mph - N/A   Scattered Clouds
9:20 PM 51.8 °F 41.0 °F 67% 29.83 in 6.2 mi West 13.8 mph 25.3 mph N/A   Scattered Clouds
9:50 PM 51.8 °F 41.0 °F 67% 29.83 in 6.2 mi West 16.1 mph 27.6 mph N/A   Mostly Cloudy
10:20 PM 51.8 °F 41.0 °F 67% 29.83 in 6.2 mi West 18.4 mph - N/A   Mostly Cloudy
10:50 PM 50.0 °F 46.4 °F 87% 29.86 in 3.7 mi West 16.1 mph 27.6 mph N/A Rain Rain
11:20 PM 50.0 °F 42.8 °F 76% 29.86 in 6.2 mi West 16.1 mph - N/A   Scattered Clouds
11:50 PM 50.0 °F 46.4 °F 87% 29.86 in 6.2 mi West 18.4 mph - N/A   Scattered Clouds